Weather History for KCAR - May, 2013

Change the Weather History Date:

Sunday, May 5, 2013

  Actual Average Record
Temperature  
Mean Temperature 61 °F 48 °F  
Max Temperature 80 °F 58 °F 82 °F (1999)
Min Temperature 41 °F 37 °F 25 °F (1958)
Degree Days  
Heating Degree Days 4 17  
Month to date heating degree days 41 91  
Since 1 July heating degree days 8055 8857  
Cooling Degree Days 0 0  
Month to date cooling degree days 0 0  
Year to date cooling degree days 0 0  
Growing Degree Days 10 (Base 50)    
Moisture  
Dew Point 35 °F    
Average Humidity 48    
Maximum Humidity 76    
Minimum Humidity 19    
Precipitation  
Precipitation 0.00 in 0.11 in 0.43 in (2011)
Month to date precipitation T 0.49  
Year to date precipitation 8.51 10.58  
Snow  
Snow 0.00 in 0.10 in 0.00 in (2002)
Month to date snowfall 0.0 0.2  
Since 1 July snowfall 106.9 108.4  
Snow Depth 0.00 in    
Sea Level Pressure  
Sea Level Pressure 30.17 in    
Wind  
Wind Speed 7 mph (South)    
Max Wind Speed 14 mph    
Max Gust Speed 20 mph    
Visibility 10 miles    
Events      
T = Trace of Precipitation, MM = Missing Value Source: NWS Daily Summary

Daily Weather History Graph

Daily Weather History Graph

Search for Another Location

Airport or City:

Trip Planner

Search our weather history database for the weather conditions in past years. The results will help you decide how hot, cold, wet, or windy it might be!

Date:

Astronomy

May. 05, 2013 Rise Set
Actual Time 5:10 AM EDT 7:47 PM EDT
Civil Twilight 4:36 AM EDT 8:22 PM EDT
Nautical Twilight 3:52 AM EDT 9:06 PM EDT
Astronomical Twilight 3:02 AM EDT 9:56 PM EDT
Moon 2:55 AM EDT (5/5) 3:29 PM EDT (5/5)
Length of Visible Light 15h 46m
Length of Day
14h 37m
Waning Crescent, 18% of the Moon is Illuminated
May 5
Waning Crescent
May 9
New
May 18
First Quarter
May 25
Full
May 31
Last Quarter

Hourly Weather History & Observations

Time (EDT) Temp. Windchill Dew Point Humidity Pressure Visibility Wind Dir Wind Speed Gust Speed Precip Events Conditions
12:54 AM 48.0 °F - 33.1 °F 56% 30.24 in 10.0 mi South 5.8 mph - N/A   Clear
1:54 AM 46.0 °F 43.1 °F 35.1 °F 66% 30.23 in 10.0 mi South 5.8 mph - N/A   Clear
2:54 AM 45.0 °F 41.2 °F 36.0 °F 71% 30.22 in 10.0 mi South 6.9 mph - N/A   Clear
3:54 AM 43.0 °F 39.5 °F 36.0 °F 76% 30.22 in 10.0 mi South 5.8 mph - N/A   Clear
4:54 AM 42.1 °F 38.4 °F 35.1 °F 76% 30.22 in 10.0 mi South 5.8 mph - N/A   Clear
5:54 AM 42.1 °F 39.2 °F 36.0 °F 79% 30.23 in 10.0 mi South 4.6 mph - N/A   Clear
6:54 AM 45.0 °F 41.8 °F 37.0 °F 74% 30.23 in 10.0 mi South 5.8 mph - N/A   Clear
7:54 AM 50.0 °F - 37.0 °F 61% 30.23 in 10.0 mi South 9.2 mph - N/A   Clear
8:54 AM 55.9 °F - 37.9 °F 51% 30.22 in 10.0 mi South 5.8 mph - N/A   Clear
9:54 AM 63.0 °F - 39.0 °F 41% 30.21 in 10.0 mi South 9.2 mph - N/A   Clear
10:54 AM 69.1 °F - 35.1 °F 29% 30.18 in 10.0 mi SSW 8.1 mph - N/A   Clear
11:54 AM 73.9 °F - 36.0 °F 25% 30.16 in 10.0 mi South 6.9 mph - N/A   Clear
12:54 PM 75.0 °F - 34.0 °F 22% 30.14 in 10.0 mi SSW 3.5 mph - N/A   Clear
2:54 PM 79.0 °F - 35.1 °F 20% 30.11 in 10.0 mi SSW 8.1 mph - N/A   Clear
3:54 PM 79.0 °F - 35.1 °F 20% 30.10 in 10.0 mi South 9.2 mph - N/A   Clear
4:54 PM 79.0 °F - 34.0 °F 20% 30.09 in 10.0 mi South 11.5 mph 16.1 mph N/A   Clear
5:54 PM 78.1 °F - 33.1 °F 19% 30.09 in 10.0 mi SSW 9.2 mph 16.1 mph N/A   Clear
6:54 PM 75.0 °F - 33.1 °F 22% 30.09 in 10.0 mi South 9.2 mph - N/A   Clear
8:54 PM 66.9 °F - 34.0 °F 30% 30.12 in 10.0 mi SSW 6.9 mph - N/A   Clear
9:54 PM 64.0 °F - 34.0 °F 33% 30.13 in 10.0 mi SSW 5.8 mph - N/A   Clear
10:54 PM 61.0 °F - 36.0 °F 39% 30.14 in 10.0 mi SSW 6.9 mph - N/A   Clear
11:54 PM 57.0 °F - 37.9 °F 49% 30.14 in 10.0 mi South 6.9 mph - N/A   Clear